EW2749 Weather Reports


time (UTC)temp
C
wind
direction
speed
KPH
gust
KPH
rain 1hr
cm
rain 24hr
cm
rain mn
cm
humidity
%
barometer
mb
20260504175513 9 0.0 6.4 0.00 0.10 0.10 90 1007.2
20260504175037 9 0.0 3.2 0.00 0.10 0.10 90 1007.3
20260504174550 9 0.0 3.2 0.00 0.10 0.10 90 1007.3
20260504174112 9 0.0 3.2 0.00 0.10 0.10 89 1007.4
20260504173627 9 135 1.6 6.4 0.00 0.10 0.10 89 1007.4
20260504173147 9 158 1.6 6.4 0.00 0.10 0.10 90 1007.5
20260504172728 9 135 1.6 6.4 0.00 0.10 0.10 89 1007.6
20260504172024 9 180 1.6 4.8 0.00 0.10 0.10 89 1007.3
20260504171523 9 135 1.6 6.4 0.00 0.10 0.10 90 1007.3
20260504170850 9 158 1.6 4.8 0.00 0.10 0.10 89 1007.2
20260504170244 9 180 3.2 8.0 0.00 0.10 0.10 87 1007.1
20260504151051 8 293 8.0 19.3 0.03 0.03 0.03 81 1007.1
20260504150611 9 293 9.7 16.1 0.00 0.00 0.00 79 1007.2
20260504150135 9 270 8.0 12.9 0.00 0.00 0.00 79 1006.9
20260504141208 9 225 8.0 17.7 0.00 0.00 0.00 76 1006.4
20260504140510 9 203 6.4 16.1 0.00 0.00 0.00 79 1006.4
20260504130633 7 203 6.4 14.5 0.00 0.00 0.00 85 1007.1
20260504130151 6 203 4.8 14.5 0.00 0.00 0.00 87 1007.3
20260504110716 3 248 1.6 4.8 0.00 0.03 0.00 88 1008.2
20260504110216 3 0.0 3.2 0.00 0.03 0.00 87 1008.3
20260504100600 3 225 3.2 6.4 0.00 0.03 0.00 83 1008.3
20260504100116 3 248 4.8 11.3 0.00 0.03 0.00 83 1008.3
20260504081532 0 158 1.6 6.4 0.00 0.08 0.00 90 1008.0
20260504081044 0 180 1.6 4.8 0.00 0.08 0.00 92 1008.0
20260504080605 0 180 1.6 3.2 0.00 0.08 0.00 92 1008.0
20260504080129 0 203 1.6 4.8 0.00 0.08 0.00 94 1008.0
20260504070245 -1 0.0 0.0 0.00 0.10 0.00 96 1007.9
20260504060138 -2 0.0 0.0 0.00 0.13 0.00 95 1007.8
20260504050732 -2 0.0 0.0 0.00 0.15 0.00 95 1007.9
20260504050010 -2 0.0 0.0 0.00 0.15 0.00 95 1008.0
20260504045551 -2 0.0 0.0 0.00 0.15 0.00 94 1007.8
20260504045049 -2 0.0 0.0 0.00 0.15 0.00 94 1007.9
20260504044609 -2 0.0 0.0 0.00 0.18 0.00 94 1007.9
20260504044127 -2 0.0 0.0 0.00 0.18 0.00 94 1007.9
20260504043645 -2 0.0 0.0 0.00 0.18 0.00 94 1008.0
20260504043200 -2 0.0 0.0 0.00 0.18 0.00 94 1008.1
20260504042507 -2 0.0 0.0 0.00 0.20 0.00 95 1008.1
20260504042020 -2 0.0 0.0 0.00 0.20 0.00 94 1007.9
20260504041541 -2 0.0 0.0 0.00 0.20 0.00 94 1008.0
20260504041104 -1 0.0 0.0 0.00 0.23 0.00 94 1008.0
20260504040624 -1 0.0 0.0 0.00 0.23 0.00 94 1008.0
20260504040138 -1 0.0 0.0 0.00 0.23 0.00 94 1008.0
20260504035540 -1 0.0 0.0 0.00 0.25 0.25 94 1007.8
20260504034534 -1 0.0 0.0 0.00 0.25 0.25 94 1008.0
20260504034052 -1 0.0 0.0 0.00 0.28 0.25 93 1007.9
20260504033552 -1 0.0 0.0 0.00 0.28 0.25 93 1008.0
20260504033107 -1 0.0 1.6 0.00 0.28 0.25 93 1008.0
20260504032630 -1 135 1.6 1.6 0.00 0.28 0.25 93 1008.0
20260504032142 -1 0.0 1.6 0.00 0.28 0.25 93 1008.2
20260504031703 -1 0.0 1.6 0.00 0.28 0.25 93 1008.1
20260504031223 -1 135 1.6 3.2 0.00 0.30 0.25 93 1008.1
20260504030527 -1 135 1.6 3.2 0.00 0.30 0.25 92 1008.1
20260504030034 -1 135 1.6 1.6 0.00 0.30 0.25 92 1008.0
20260504025556 -1 0.0 1.6 0.00 0.33 0.25 92 1008.0
20260504025111 -1 135 1.6 3.2 0.00 0.33 0.25 92 1007.9
20260504024636 -1 135 1.6 3.2 0.00 0.36 0.25 91 1008.0
20260504024151 -1 135 1.6 3.2 0.00 0.36 0.25 91 1008.0
20260504023709 -1 0.0 1.6 0.00 0.36 0.25 90 1008.1
20260504023004 -1 0.0 1.6 0.00 0.36 0.25 90 1008.0
20260504022526 -1 0.0 1.6 0.00 0.36 0.25 90 1007.9
20260504022017 0 135 1.6 3.2 0.00 0.36 0.23 90 1008.0
20260504021557 0 0.0 1.6 0.00 0.36 0.25 89 1008.1
20260504021123 0 0.0 3.2 0.00 0.36 0.25 89 1008.1
20260504020704 0 0.0 3.2 0.00 0.36 0.25 89 1008.0
20260504020201 0 0.0 1.6 0.00 0.36 0.25 89 1007.9
20260504015721 0 0.0 1.6 0.00 0.36 0.25 89 1008.0
20260504015017 0 0.0 3.2 0.00 0.36 0.25 88 1008.1
20260504014551 0 0.0 3.2 0.00 0.36 0.25 88 1008.2
20260504014047 0 0.0 3.2 0.00 0.36 0.25 88 1007.9
20260504013608 0 135 1.6 3.2 0.00 0.36 0.25 87 1008.1
20260504013150 1 0.0 1.6 0.00 0.36 0.25 87 1008.0
20260504012650 1 0.0 0.0 0.00 0.36 0.25 87 1008.0
20260504012223 1 0.0 1.6 0.00 0.36 0.25 86 1008.0
20260504011726 1 0.0 3.2 0.00 0.36 0.25 86 1008.0
20260504011023 1 0.0 3.2 0.00 0.36 0.25 85 1007.9
20260504010543 1 135 1.6 3.2 0.00 0.36 0.25 84 1007.9
20260504010106 2 0.0 1.6 0.00 0.36 0.25 83 1007.8
20260504005613 2 135 1.6 3.2 0.00 0.36 0.25 82 1007.8
20260504005140 2 135 1.6 4.8 0.00 0.36 0.25 81 1007.9
20260504004656 3 135 1.6 4.8 0.00 0.36 0.25 79 1007.8
20260504004212 3 0.0 1.6 0.00 0.38 0.25 80 1007.7
20260504003515 3 0.0 1.6 0.00 0.38 0.25 78 1007.7
20260504003021 3 0.0 1.6 0.00 0.38 0.23 77 1007.7
20260504002515 4 0.0 3.2 0.00 0.38 0.25 75 1007.9
20260504002028 4 0.0 1.6 0.00 0.38 0.25 75 1007.8
20260504001550 5 248 1.6 3.2 0.00 0.41 0.25 73 1007.8
20260504001105 5 248 1.6 4.8 0.00 0.43 0.25 70 1007.8
20260504000630 5 270 1.6 3.2 0.00 0.43 0.25 68 1007.8
20260504000147 6 315 1.6 3.2 0.00 0.46 0.25 67 1007.8
20260503235703 6 315 3.2 6.4 0.00 0.46 0.25 62 1007.8
20260503235224 6 293 3.2 6.4 0.00 0.46 0.25 62 1007.8
20260503234526 6 293 4.8 9.7 0.00 0.46 0.25 63 1007.8
20260503234037 6 270 3.2 6.4 0.00 0.46 0.25 62 1007.8
20260503233603 6 293 3.2 6.4 0.00 0.46 0.25 63 1007.7
20260503233112 6 293 4.8 6.4 0.00 0.46 0.25 63 1007.6
20260503232632 6 270 4.8 8.0 0.00 0.46 0.25 61 1007.7
20260503232155 6 315 4.8 9.7 0.00 0.46 0.25 61 1007.7
20260503231734 6 315 3.2 8.0 0.00 0.46 0.25 62 1007.7
20260503231007 6 315 4.8 8.0 0.00 0.46 0.25 63 1007.5
20260503230523 6 315 6.4 14.5 0.00 0.46 0.25 62 1007.5
20260503230044 6 338 9.7 19.3 0.00 0.46 0.25 64 1007.7
20260503225603 6 293 8.0 12.9 0.00 0.46 0.25 63 1007.7
20260503225124 6 315 6.4 12.9 0.00 0.46 0.25 62 1007.7
20260503224723 6 315 8.0 14.5 0.00 0.46 0.25 65 1007.7
20260503224201 6 315 8.0 14.5 0.00 0.46 0.25 63 1007.7
20260503223717 6 338 9.7 16.1 0.00 0.46 0.25 62 1007.6
20260503223017 6 315 9.7 16.1 0.00 0.46 0.25 61 1007.5
20260503222533 6 315 12.9 20.9 0.00 0.46 0.25 63 1007.5
20260503222048 6 338 11.3 19.3 0.00 0.46 0.25 61 1007.6
20260503221608 6 315 11.3 19.3 0.00 0.46 0.25 63 1007.5
20260503221224 6 338 4.8 9.7 0.00 0.46 0.25 65 1007.6
20260503215018 6 338 3.2 11.3 0.00 0.46 0.25 64 1007.4
20260503214534 6 0 4.8 16.1 0.00 0.46 0.25 65 1007.5
20260503214115 6 338 4.8 12.9 0.00 0.46 0.25 67 1007.6
20260503213619 6 0 3.2 6.4 0.00 0.46 0.25 65 1007.6
20260503213128 6 0 6.4 14.5 0.00 0.46 0.25 64 1007.6
20260503212654 6 0 4.8 12.9 0.00 0.46 0.25 66 1007.6
20260503212212 6 0 4.8 12.9 0.00 0.46 0.25 66 1007.7
20260503211513 6 0 8.0 20.9 0.00 0.46 0.25 65 1007.7
20260503211028 6 0 6.4 14.5 0.00 0.46 0.25 63 1007.5
20260503210543 6 0 8.0 17.7 0.00 0.46 0.25 64 1007.7
20260503210116 6 338 8.0 17.7 0.00 0.46 0.25 62 1007.6
20260503205620 6 338 11.3 20.9 0.00 0.46 0.25 59 1007.6
20260503205144 6 338 6.4 12.9 0.00 0.46 0.25 60 1007.6
20260503204720 6 338 9.7 17.7 0.00 0.46 0.25 58 1007.6
20260503204024 6 338 12.9 27.4 0.00 0.46 0.23 59 1007.5
20260503203516 6 338 12.9 25.7 0.00 0.46 0.25 58 1007.5
20260503203041 6 338 6.4 16.1 0.00 0.46 0.25 60 1007.4
20260503202559 6 338 8.0 12.9 0.00 0.46 0.25 61 1007.5
20260503202142 6 338 11.3 16.1 0.00 0.46 0.25 60 1007.4
20260503201631 6 315 9.7 19.3 0.00 0.46 0.25 60 1007.4
20260503201209 6 315 16.1 22.5 0.00 0.46 0.25 60 1007.5
20260503200718 6 338 14.5 24.1 0.00 0.46 0.25 62 1007.6
20260503200013 6 338 16.1 27.4 0.00 0.46 0.25 63 1007.6
20260503195522 6 315 19.3 29.0 0.00 0.46 0.25 59 1007.6
20260503195046 6 338 16.1 27.4 0.00 0.46 0.25 64 1007.6
20260503194606 6 0 9.7 22.5 0.00 0.46 0.25 60 1007.5
20260503194122 6 338 11.3 20.9 0.00 0.46 0.25 62 1007.5
20260503193638 6 338 17.7 25.7 0.00 0.48 0.25 61 1007.5
20260503193225 6 338 14.5 22.5 0.00 0.51 0.25 60 1007.5
20260503192713 6 315 14.5 29.0 0.00 0.53 0.25 60 1007.4
20260503192031 6 338 9.7 16.1 0.00 0.58 0.25 58 1007.4
20260503191600 6 338 8.0 16.1 0.00 0.58 0.25 58 1007.6
20260503191053 6 338 11.3 19.3 0.00 0.58 0.25 55 1007.5
20260503190608 6 338 12.9 25.7 0.00 0.58 0.25 59 1007.5
20260503190133 6 0 8.0 17.7 0.00 0.58 0.25 59 1007.5
20260503185650 6 0 11.3 20.9 0.00 0.58 0.25 59 1007.6
20260503185209 6 0 8.0 17.7 0.00 0.58 0.25 60 1007.5
20260503184509 6 338 11.3 24.1 0.00 0.58 0.25 63 1007.5
20260503184025 6 338 16.1 22.5 0.00 0.58 0.25 62 1007.4
20260503183537 6 315 20.9 32.2 0.00 0.61 0.25 62 1007.5
20260503183058 6 338 12.9 24.1 0.00 0.61 0.25 61 1007.5
20260503182614 7 338 9.7 19.3 0.00 0.61 0.25 59 1007.3
20260503182136 7 338 11.3 20.9 0.00 0.61 0.25 61 1007.3
20260503181655 7 315 11.3 24.1 0.00 0.61 0.25 61 1007.4
20260503181209 7 0 8.0 17.7 0.00 0.61 0.25 58 1007.4
20260503180505 7 0 9.7 19.3 0.00 0.61 0.25 59 1007.4
20260503180029 7 338 8.0 20.9 0.00 0.61 0.25 60 1007.5
20260503175551 7 0 9.7 16.1 0.00 0.61 0.25 60 1007.5